Home > Weather > Crawley > Past weeks

Flag for United Kingdom Past Weather in Crawley, England, United Kingdom — Yesterday and Last 2 Weeks

Now
55 °F

Overcast.


Feels Like: 52 °F
Forecast: 55 / 64 °F
Wind: 13 mph from North

Location: London / Gatwick Airport

Current Time: May 31, 2016 at 7:04:15 PM

Latest Report: May 31, 2016 at 6:20 PM


Visibility: N/A

Pressure: 30.01 "Hg

Humidity: 88%

Dew Point: 52 °F

Location of CrawleyLocation

Past Weather in Crawley — Graph

°F

Crawley Temperature Yesterday

Maximum temperature yesterday: 63 °F (at 4:50 PM)
Minimum temperature yesterday: 54 °F (at 1:20 AM)
Average temperature yesterday: 58 °F

High & Low Weather Summary for the Past Weeks

 TemperatureHumidityPressure
High70 °F (May 27, 3:20 PM)100% (May 17, 3:20 AM)30.18 "Hg (May 17, 3:20 AM)
Low37 °F (May 26, 4:50 AM)46% (May 23, 3:50 PM)29.59 "Hg (May 18, 4:50 PM)
Average56 °F78%29.95 "Hg
* Reported May 16 6:20 PM — May 31 6:20 PM, Crawley, Weather by CustomWeather, © 2016

Note: Actual official high and low records may vary slightly from our data, if they occured in-between our weather recording intervals... More about our weather records

Advertising

Crawley Weather History for the Previous 24 Hours

Scroll right to see more
 ConditionsComfort  
Time TempWeatherWind HumidityBarometerVisibility
6:20 PM
Tue, May 31
55 °FOvercast.13 mph88%30.01 "HgN/A
5:20 PM54 °FScattered showers. Partly sunny.13 mph94%30.01 "HgN/A
4:50 PM54 °FLow clouds.12 mph94%30.01 "HgN/A
4:20 PM54 °FDrizzle. Overcast.13 mph94%30.01 "Hg5 mi
3:50 PM54 °FPartly sunny.14 mph88%30.01 "HgN/A
3:20 PM54 °FPartly sunny.16 mph88%30.01 "HgN/A
2:50 PM54 °FOvercast.15 mph88%30.01 "HgN/A
2:20 PM54 °FBroken clouds.14 mph88%30.01 "HgN/A
1:50 PM54 °FPartly sunny.16 mph88%29.98 "HgN/A
1:20 PM54 °FPartly sunny.16 mph88%29.98 "HgN/A
12:50 PM54 °FPartly sunny.15 mph88%29.98 "HgN/A
12:20 PM54 °FPartly sunny.15 mph88%29.98 "HgN/A
11:50 AM52 °FLight rain. Partly sunny.10 mph94%29.98 "Hg6 mi
11:20 AM52 °FDrizzle. Partly sunny.12 mph94%29.98 "Hg4 mi
10:50 AM52 °FDrizzle. Partly sunny.15 mph94%29.98 "Hg2 mi
10:20 AM52 °FLight rain. Partly sunny.16 mph94%29.95 "HgN/A
9:50 AM52 °FDrizzle. Partly sunny.16 mph94%29.95 "HgN/A
9:20 AM52 °FDrizzle. Partly sunny.16 mph94%29.95 "Hg5 mi
8:50 AM52 °FRain. Broken clouds.17 mph94%29.95 "Hg4 mi
8:20 AM52 °FLight rain. Partly sunny.16 mph94%29.95 "Hg5 mi
7:50 AM54 °FLight rain. Partly sunny.17 mph88%29.92 "Hg5 mi
7:20 AM54 °FLight rain. Partly sunny.16 mph82%29.92 "HgN/A
6:50 AM54 °FPartly sunny.21 mph82%29.89 "HgN/A
6:20 AM54 °FPartly sunny.21 mph82%29.89 "HgN/A
5:50 AM54 °FPartly sunny.21 mph82%29.89 "HgN/A
5:20 AM54 °FPassing clouds.18 mph82%29.92 "HgN/A
4:50 AM54 °FPassing clouds.17 mph77%29.92 "HgN/A
4:20 AM55 °FPassing clouds.20 mph77%29.92 "HgN/A
3:50 AM55 °FPassing clouds.16 mph77%29.92 "HgN/A
3:20 AM55 °FPassing clouds.20 mph77%29.92 "HgN/A
2:50 AM55 °FPassing clouds.16 mph77%29.92 "HgN/A
2:20 AM55 °FPassing clouds.17 mph72%29.92 "HgN/A
1:50 AM55 °FPassing clouds.17 mph72%29.95 "HgN/A
1:20 AM55 °FPassing clouds.20 mph72%29.95 "HgN/A
12:50 AM55 °FClear.20 mph72%29.95 "Hg10 mi
12:20 AM57 °FClear.18 mph67%29.95 "Hg10 mi
11:50 PM
Mon, May 30
57 °FClear.18 mph67%29.95 "Hg10 mi
11:20 PM57 °FClear.16 mph72%29.98 "Hg10 mi
10:50 PM59 °FPassing clouds.15 mph68%29.98 "HgN/A
10:20 PM59 °FPassing clouds.15 mph68%29.98 "HgN/A
9:50 PM59 °FPassing clouds.15 mph68%29.98 "HgN/A
9:20 PM61 °FPassing clouds.14 mph63%29.98 "HgN/A
8:50 PM61 °FPassing clouds.14 mph63%29.98 "HgN/A
8:20 PM61 °FPassing clouds.18 mph63%29.98 "HgN/A
7:50 PM63 °FPartly sunny.20 mph59%29.98 "HgN/A
7:20 PM63 °FPartly sunny.13 mph64%29.98 "HgN/A
Weather by CustomWeather, © 2016

See weather overviewHow to use our weather pages